Regional Weather Roundup
Issued by NWS Newport/Morehead, NC

Current Version | Previous Version | Text Only | Print | Product List | Glossary On
Versions: 1 2 3 4 5 6 7 8 9 10 11 12 13 14 15 16 17 18 19 20 21 22 23 24 25 26 27 28 29 30 31 32 33 34 35 36 37 38 39 40 41 42 43 44 45 46 47 48 49 50
000 ASUS42 KMHX 171322 RWRMHX WEATHER ROUNDUP FOR EASTERN NORTH CAROLINA NATIONAL WEATHER SERVICE NEWPORT/MOREHEAD CITY NC 900 AM EDT WED SEP 17 2014 NOTE: "FAIR" INDICATES FEW OR NO CLOUDS BELOW 12,000 FEET WITH NO SIGNIFICANT WEATHER AND/OR OBSTRUCTIONS TO VISIBILITY NCZ015>017-031-032-045>047-102-103-171400- NORTH COAST CITY SKY/WX TMP DP RH WIND PRES REMARKS EDENTON NOT AVBL ELIZABETH CITY CLOUDY 72 64 76 NE12 29.98S KITTY HAWK PTSUNNY 74 63 68 E9G17 29.96S MANTEO NOT AVBL $$ NCZ045>047-081-094-103-104-171400- CENTRAL COAST CITY SKY/WX TMP DP RH WIND PRES REMARKS FRISCO CLOUDY 72 68 87 E9 29.94R SWANQUARTER N/A 73 N/A N/A NE8G14 29.91S $$ NCZ095-097-098-100-101-171400- SOUTHERN COAST CITY SKY/WX TMP DP RH WIND PRES REMARKS BEAUFORT PTSUNNY 73 71 93 N5 29.93R CEDAR ISLAND N/A 77 N/A N/A NE14 29.97S JACKSONVILLE CLOUDY 72 69 90 NE7 29.93R NEWPORT NOT AVBL PINEY ISLAND LGT RAIN 74 68 81 E15 29.93R WILMINGTON PTSUNNY 70 66 87 NW6 29.93S $$ NCZ011>013-027>030-043-044-078>080-089-090>093-098-171400- COASTAL PLAIN CITY SKY/WX TMP DP RH WIND PRES REMARKS AHOSKIE PTSUNNY 68 63 83 N6 30.00S CLINTON MOSUNNY 70 68 95 NE7 29.95F ELIZABETHTOWN CLOUDY 68 68 99 CALM 29.95S GOLDSBORO MOSUNNY 70 69 97 NE7 29.95R GREENVILLE PTSUNNY 70 64 83 NE6 29.99S HAVELOCK CLOUDY 73 70 90 NE15 29.95S KENANSVILLE NOT AVBL KINSTON PTSUNNY 72 66 83 NE8 29.97 NEW BERN MOSUNNY 72 68 87 N5 29.96S RICHLANDS CLOUDY 72 66 83 NE12 29.95R ROANOKE RAPIDS NOT AVBL ROCKY MOUNT PTSUNNY 70 62 76 NE12 29.99R WASHINGTON MOSUNNY 69 66 91 N6 29.97S WHITEVILLE SUNNY 71 65 83 N3 29.95S $$ AMZ130-135-150-152-154-156-158-170-250-252-270-ANZ085-086-088-633-658-670-171400- MARINE OBSERVATIONS STATION/POSITION TIME TEMP WIND PRES WAVE SWELL AIR SEA DIR/SP/G HT/PER HT/PER (UTC) (F) (DEG/KT/KT) (MB) (FT/S) (FT/S) CHESAPEAKE LIGHT 1300 71 50/ 16/ 17 1016.6 BUOY 44014 1300 73 77 60/ 14/ 17 1015.0 4/14 3/14 DUCK 1300 73 76 60/ 17/ 20 1014.4 2E DUCK 1300 N/A 4/15 2/15 OREGON INLET 1300 74 76 40/ 15/ 19 1014.4 BUOY 44095 1300 76 N/A 4/13 2/13 20E OREGON INLET NOT AVBL HATTERAS CG 1300 75 79 50/ 11/ 16 1014.0 DIAMOND BUOY 1300 72 20/ 14/ 19 1013.4 5/15 3/15 CAPE LOOKOUT 1300 77 80/ 8/ 9 1013.2 BEAUFORT LAB 1300 73 79 20/ 5/ 8 1013.0 30 SE NEW RIVER 1300 78 81 50/ 6/ 6 1013.3 3/15 2/15 5 SE WRIGHTSVILL 1300 69 81 10/ 10/ 12 N/A BUOY 41002 1208 77 82 150/ 6/ 8 1012.9 6/13 5/13 BUOY 41004 1300 80 83 50/ 4/ 4 1012.5 3/14 3/14 $$

USA.gov is the U.S. government's official web portal to all federal, state and local government web resources and services.